Location: Newark
(38.6492°N, 88.9193°W)
Time: 09:22:52
(UTC+00:00)

LightSail 2 - Visible Passes

Search period start: 14 November 2019 00:00
Search period end: 24 November 2019 00:00
Orbit: 701 x 726 km, 24.0° (Epoch: 13 November)

Date Brightness Start Highest point End Pass type
(mag) Time Alt. Az. Time Alt. Az. Time Alt. Az.
14 Nov 7.2 10:43:59 13° SSW 10:45:41 15° S 10:48:42 10° SSE visible
15 Nov 7.6 09:49:43 13° SSE 09:49:43 13° SSE 09:51:01 10° SE visible
15 Nov 7.5 11:30:34 10° SW 11:32:44 13° S 11:34:53 10° SSE visible
16 Nov 7.3 10:34:26 14° SSW 10:35:03 14° S 10:37:41 10° SSE visible
17 Nov 7.9 09:40:08 10° SSE 09:40:08 10° SSE 09:40:14 10° SSE visible
18 Nov 7.5 10:24:49 11° S 10:24:49 11° S 10:25:56 10° S visible
